Location: Endfield
(51.6667°N, 0.0667°W)
Time: 14:56:59
(UTC+00:00)

MetOp-A - Pass Details

Date: 19 May 2024
Orbit: 527 x 791 km, 98.4° (Epoch: 16 June)

Event Time Altitude Azimuth Distance (km) Brightness Sun altitude
Exits shadow 21:11:04 13° 139° (SE) 1,835 5.3 -9.7°
Maximum altitude 21:14:49 48° 67° (ENE) 880 4.2 -10.1°
Drops below altitude 10° 21:19:26 10° 354° (N) 2,196 7.4 -10.5°
Sets 21:21:51 0° 349° (N) 3,161 8.5 -10.7°
